STARLINK-5750, 55594

Orbit data source: Space-Track

STARLINK-5750, 55594 is a payload satellite owned by SpaceX/Seattle (US) in LEO that was launched on Sun, 12 Feb 2023 UTC via an FALCON 9 launch vehicle from the Air Force Eastern Test Range (AFETR). Payload-class satellites include a variety of spacecraft equipped with specific instruments for various scientific and technological missions. These include communications satellites like Starlink; space stations such as the ISS; scientific satellites like the Hubble; Earth observation satellites from companies like Planet Labs, Umbra, and HawkEye 360; GPS; miniature CubeSats for education and research; and military/defense satellites.

Loading next visibility...
Identifier
55594, 2023-020AB
Orbit
LEO
Country
Flag of USUS
Related business
Manufacturer
SpaceX/Seattle
Mission
Operational spacecraft
Bus & Motor
STARLINK, Unknown motor
Mass
305 kg wet, ~290 kg dry
Launch date (UTC)
2023-02-12 (3 years ago)
Launch vehicle
FALCON 9
Launch site
Air Force Eastern Test Range (AFETR)
Object type
Payload
Rocket body
Debris
Shape & HBR
Unknown shape, 10.1 m
Radar Cross Section
Large (>1 m²)

Expand to show TLE details & history
Last TLE update: 18 hours ago

TLE from 18 hours ago
0 STARLINK-5750
1 55594U 23020AB  26061.64234228 -.00000248  00000-0 -32805-5 0  9990
2 55594  43.0047  42.5533 0001355 264.4017  95.6671 15.02534469167869
Epoch: 2026-03-02T15:24Z
TLE epoch observation values (Epoch: 2026-03-02T15:24:58.372Z)
Latitude
0.00001°
Longitude
10.87727°
Altitude
558.956 km
Speed
7.584 km/s
True Right ascension
02h 50m 12s
True Declination
0° 00' 00"
Sunlit
Object was in daylight at epoch
Visualization orbit readout
Latitude
Unknown
Longitude
Unknown
Altitude
Unknown
Speed
Unknown
Apparent Right ascension
Unknown
Apparent Declination
Unknown
Sunlit
N/A
Visualization observer readout
Local Sidereal Time
13:11:47
Azimuth
Unknown
Elevation
Unknown
Doppler factor
Unknown
Orbital elements
Apogee altitude
561.948 km
Perigee altitude
560.067 km
Semi-major axis
6,939.144 km
Eccentricity
0.00014
Inclination
43.0047°
RAAN
42.5533°
Arg. of periapsis
264.4017°
True anomaly
95.68255°
Mean anomaly
95.6671°
Eccentric anomaly
95.67483°
Mean motion
3.75478 °/min
Orbital period
95.88 mins
BSTAR
-0.0000032805
Loading maneuver chart data...
Computing Atmospheric mass density...
Loading historical data...
Loading historical data...
Loading historical data...
Loading historical data...
Loading historical data...
Loading historical data...
Loading historical data...

Documentation

Showing up to 5 results
|